period_start,C,m1,H,J0,J1,J2,J3,J4,J5,JA,JB,JC,JD,JJ,JK,JN,#
2015-12-11 00:03:58,0.09,11.35,0.00,15.62,19.80,23.62,14.98,52.76,1010.76,2059.51,1151.81,1418.97,1584.18,600.08,607.82,57.77,0000 0000 0000 0000 000000
2015-12-11 00:08:59,0.16,11.36,0.00,15.65,19.83,23.61,14.91,52.78,1010.74,2059.15,1150.95,1418.10,1583.26,599.64,607.23,57.82,0000 0000 0000 0000 000000
2015-12-11 00:14:00,0.21,11.37,0.00,15.66,19.87,23.69,14.97,52.83,1010.72,2059.03,1150.06,1417.26,1582.32,600.07,607.59,57.87,0000 0000 0000 0000 000000
2015-12-11 00:19:01,0.21,11.38,0.00,15.68,19.90,23.74,15.00,52.90,1010.72,2059.01,1149.19,1416.50,1581.40,600.16,607.60,57.92,0000 0000 0000 0000 000000
2015-12-11 00:24:03,0.20,11.39,0.00,15.73,19.93,23.73,14.92,52.80,1010.57,2059.00,1148.38,1415.73,1580.51,600.01,607.40,57.97,0000 0000 0000 0000 000000
2015-12-11 00:29:04,0.18,11.39,0.00,15.76,19.96,23.78,14.89,52.78,1010.55,2058.99,1147.48,1414.95,1579.58,599.53,606.91,58.02,0000 0000 0000 0000 000000
2015-12-11 00:34:05,0.15,11.41,0.00,15.77,19.99,23.77,14.96,52.84,1010.75,2058.98,1146.75,1414.09,1578.78,600.34,607.70,58.07,0000 0000 0000 0000 000000
2015-12-11 00:39:06,0.20,11.42,0.00,15.81,20.02,23.84,14.84,52.84,1010.74,2058.94,1145.83,1413.31,1577.87,599.90,607.27,58.12,0000 0000 0000 0000 000000
2015-12-11 00:44:08,0.14,11.42,0.00,15.84,20.05,23.84,14.96,52.81,1010.72,2058.62,1144.93,1412.49,1576.95,600.09,607.36,58.17,0000 0000 0000 0000 000000
2015-12-11 00:49:09,0.13,11.43,0.00,15.87,20.08,23.90,14.92,52.93,1010.65,2058.31,1144.09,1411.81,1576.06,599.88,606.92,58.22,0000 0000 0000 0000 000000
2015-12-11 00:54:11,0.16,11.44,0.00,15.89,20.10,23.88,15.00,52.88,1010.54,2058.09,1143.24,1411.04,1575.20,600.46,607.44,58.27,0000 0000 0000 0000 000000
2015-12-11 00:59:12,0.21,11.45,0.00,15.92,20.13,23.92,14.99,52.93,1010.42,2058.02,1142.50,1410.23,1574.38,600.39,607.24,58.33,0000 0000 0000 0000 000000
2015-12-11 01:04:13,0.15,11.45,0.00,15.95,20.16,23.94,14.86,52.87,1010.32,2058.01,1141.77,1409.62,1573.64,599.65,606.47,58.38,0000 0000 0000 0000 000000
2015-12-11 01:09:14,0.13,11.46,0.00,15.98,20.19,23.97,14.92,52.66,1010.30,2058.00,1140.93,1408.90,1572.78,600.31,607.00,58.43,0000 0000 0000 0000 000000
2015-12-11 01:14:15,0.20,11.48,0.00,15.99,20.22,23.99,14.91,52.83,1010.29,2058.00,1140.10,1408.07,1571.93,599.92,606.73,58.48,0000 0000 0000 0000 000000
2015-12-11 01:19:17,0.22,11.48,0.00,16.02,20.24,24.04,14.95,52.75,1010.28,2057.97,1139.22,1407.38,1571.04,599.97,606.69,58.53,0000 0000 0000 0000 000000
2015-12-11 01:24:18,0.20,11.49,0.00,16.04,20.28,24.04,14.95,53.00,1010.28,2057.98,1138.41,1406.63,1570.10,599.95,606.53,58.58,0000 0000 0000 0000 000000
2015-12-11 01:29:19,0.15,11.50,0.00,16.05,20.30,24.11,14.95,52.81,1010.27,2057.83,1137.58,1405.86,1569.17,600.11,606.90,58.63,0000 0000 0000 0000 000000
2015-12-11 01:34:20,0.10,11.51,0.00,16.07,20.33,24.09,14.91,52.92,1010.27,2057.24,1136.75,1404.98,1568.28,600.01,606.56,58.68,0000 0000 0000 0000 000000
2015-12-11 01:39:21,0.18,11.52,0.00,16.09,20.36,24.16,14.93,52.91,1010.27,2057.06,1135.83,1404.09,1567.33,600.05,606.40,58.73,0000 0000 0000 0000 000000
2015-12-11 01:44:23,0.21,11.53,0.00,16.13,20.39,24.12,14.96,52.81,1010.22,2057.03,1134.92,1403.33,1566.36,600.39,606.68,58.78,0000 0000 0000 0000 000000
2015-12-11 01:49:24,0.22,11.54,0.00,16.18,20.42,24.22,14.98,52.91,1010.25,2057.00,1133.94,1402.49,1565.40,600.11,606.44,58.83,0000 0000 0000 0000 000000
2015-12-11 01:54:25,0.22,11.55,0.00,16.22,20.44,24.18,14.91,52.95,1010.22,2057.00,1132.97,1401.57,1564.43,600.43,606.61,58.88,0000 0000 0000 0000 000000
2015-12-11 01:59:26,0.19,11.56,0.00,16.24,20.47,24.29,14.91,52.89,1010.23,2056.99,1132.05,1400.76,1563.44,600.16,606.20,58.93,0000 0000 0000 0000 000000
2015-12-11 02:04:28,0.21,11.57,0.00,16.26,20.50,24.27,14.91,52.98,1010.08,2056.97,1131.06,1399.90,1562.42,600.09,606.08,58.98,0000 0000 0000 0000 000000
2015-12-11 02:09:29,0.22,11.58,0.00,16.27,20.52,24.31,14.83,52.83,1009.93,2056.96,1130.08,1399.00,1561.45,599.95,605.80,59.03,0000 0000 0000 0000 000000
2015-12-11 02:14:30,0.18,11.60,0.00,16.29,20.55,24.33,14.84,52.73,1009.96,2056.76,1129.12,1398.06,1560.48,599.63,605.45,59.08,0000 0000 0000 0000 000000
2015-12-11 02:19:31,0.15,11.60,0.00,16.34,20.58,24.34,14.82,52.80,1009.83,2056.17,1128.17,1397.15,1559.48,599.80,605.44,59.13,0000 0000 0000 0000 000000
2015-12-11 02:24:33,0.22,11.61,0.00,16.35,20.61,24.38,14.90,52.80,1009.85,2056.06,1127.23,1396.29,1558.45,599.90,605.56,59.18,0000 0000 0000 0000 000000
2015-12-11 02:29:34,0.20,11.62,0.00,16.38,20.63,24.39,14.92,52.82,1009.85,2056.01,1126.39,1395.51,1557.56,599.96,605.67,59.24,0000 0000 0000 0000 000000
2015-12-11 02:34:36,0.20,11.63,0.00,16.43,20.67,24.44,14.89,52.77,1009.79,2056.00,1125.54,1394.67,1556.58,599.84,605.21,59.29,0000 0000 0000 0000 000000
2015-12-11 02:39:37,0.20,11.64,0.00,16.44,20.69,24.48,14.85,52.73,1009.81,2055.99,1124.58,1393.84,1555.61,599.77,605.31,59.34,0000 0000 0000 0000 000000
2015-12-11 02:44:38,0.17,11.65,0.00,16.47,20.72,24.49,14.96,52.80,1009.80,2055.98,1123.74,1393.00,1554.70,600.35,605.80,59.39,0000 0000 0000 0000 000000
2015-12-11 02:49:39,0.24,11.66,0.00,16.49,20.75,24.49,14.98,52.77,1009.83,2055.95,1122.77,1392.11,1553.71,600.82,606.07,59.44,0000 0000 0000 0000 000000
2015-12-11 02:54:41,0.18,11.67,0.00,16.53,20.78,24.51,14.94,52.73,1009.81,2055.84,1121.83,1391.34,1552.77,600.32,605.46,59.49,0000 0000 0000 0000 000000
2015-12-11 02:59:42,0.16,11.68,0.00,16.56,20.81,24.53,14.92,52.79,1009.78,2055.47,1120.86,1390.43,1551.79,600.29,605.42,59.54,0000 0000 0000 0000 000000
2015-12-11 03:04:43,0.14,11.69,0.00,16.57,20.83,24.61,14.88,52.82,1009.78,2055.13,1120.00,1389.58,1550.91,599.85,605.05,59.59,0000 0000 0000 0000 000000
2015-12-11 03:09:44,0.22,11.70,0.00,16.59,20.86,24.61,14.82,52.67,1009.78,2055.03,1119.03,1388.71,1549.88,599.88,605.08,59.64,0000 0000 0000 0000 000000
2015-12-11 03:14:46,0.19,11.71,0.00,16.63,20.89,24.67,14.88,52.83,1009.79,2055.01,1118.02,1387.90,1548.90,599.89,605.03,59.69,0000 0000 0000 0000 000000
2015-12-11 03:19:47,0.23,11.72,0.00,16.66,20.92,24.68,14.90,52.85,1009.78,2055.00,1117.04,1387.01,1547.87,600.15,605.13,59.74,0000 0000 0000 0000 000000
2015-12-11 03:24:48,0.22,11.74,0.00,16.69,20.95,24.71,14.84,52.91,1009.78,2055.00,1116.10,1386.11,1546.94,599.89,604.91,59.79,0000 0000 0000 0000 000000
2015-12-11 03:29:50,0.22,11.75,0.00,16.72,20.98,24.75,14.88,52.77,1009.78,2054.98,1115.23,1385.25,1545.97,600.24,605.11,59.84,0000 0000 0000 0000 000000
2015-12-11 03:34:51,0.23,11.76,0.00,16.73,21.01,24.78,14.83,52.81,1009.78,2054.95,1114.20,1384.36,1544.97,600.11,604.83,59.89,0000 0000 0000 0000 000000
2015-12-11 03:39:53,0.19,11.77,0.00,16.74,21.03,24.82,14.91,52.81,1009.79,2054.86,1113.34,1383.60,1544.01,600.07,604.92,59.94,0000 0000 0000 0000 000000
2015-12-11 03:44:54,0.18,11.78,0.00,16.79,21.06,24.81,14.78,52.71,1009.79,2054.64,1112.37,1382.68,1543.03,599.79,604.53,59.99,0000 0000 0000 0000 000000
2015-12-11 03:49:56,0.13,11.78,0.00,16.82,21.09,24.89,14.89,52.83,1009.80,2054.10,1111.46,1381.85,1542.06,600.15,604.80,60.04,0000 0000 0000 0000 000000
2015-12-11 03:54:57,0.21,11.79,0.00,16.83,21.12,24.91,14.96,52.96,1009.79,2054.02,1110.54,1380.96,1541.07,600.06,604.71,60.10,0000 0000 0000 0000 000000
2015-12-11 03:59:58,0.28,7.48,0.00,16.87,21.16,24.91,13.10,45.42,1009.80,2056.20,2026.78,2068.77,2309.51,533.02,537.07,0.01,0000 0000 0000 0000 000002
2015-12-11 04:05:00,0.28,0.00,0.00,16.88,21.19,24.94,14.82,49.71,1009.79,2059.99,3604.27,3255.42,3636.39,600.22,604.77,0.03,0000 0000 0000 0000 000000
2015-12-11 04:10:01,0.28,0.01,0.00,16.89,21.22,24.96,14.87,49.77,1009.80,2059.98,3598.30,3251.54,3632.18,599.85,604.27,0.08,0000 0000 0000 0000 000000
2015-12-11 04:15:02,0.27,0.02,0.00,16.91,21.24,24.95,14.78,49.84,1009.80,2059.85,3592.77,3247.63,3627.74,599.61,604.16,0.13,0000 0000 0000 0000 000000
2015-12-11 04:20:04,0.26,0.03,0.00,16.94,21.27,25.01,14.81,49.76,1009.80,2059.57,3587.37,3243.77,3623.40,599.91,604.43,0.18,0000 0000 0000 0000 000000
2015-12-11 04:25:05,0.23,0.04,0.00,16.94,21.29,25.05,14.79,49.84,1009.80,2059.13,3582.14,3239.79,3618.92,600.09,604.49,0.23,0000 0000 0000 0000 000000
2015-12-11 04:30:06,0.23,0.05,0.00,16.97,21.32,25.08,14.82,49.98,1009.81,2059.03,3576.89,3235.91,3614.57,599.95,604.29,0.28,0000 0000 0000 0000 000000
2015-12-11 04:35:07,0.23,0.06,0.00,17.00,21.34,25.13,14.76,49.80,1009.82,2059.01,3571.59,3232.07,3610.35,599.67,604.03,0.33,0000 0000 0000 0000 000000
2015-12-11 04:40:09,0.24,0.07,0.00,17.03,21.36,25.11,14.79,49.82,1009.80,2059.01,3566.29,3228.14,3605.97,599.84,604.04,0.38,0000 0000 0000 0000 000000
2015-12-11 04:45:10,0.24,0.09,0.00,17.04,21.38,25.16,14.83,49.84,1009.83,2059.00,3560.73,3224.07,3601.47,600.09,604.32,0.43,0000 0000 0000 0000 000000
2015-12-11 04:50:11,0.26,0.10,0.00,17.07,21.41,25.13,14.80,49.92,1009.84,2059.00,3555.11,3219.88,3596.76,600.16,604.31,0.48,0000 0000 0000 0000 000000
2015-12-11 04:55:13,0.25,0.11,0.00,17.09,21.43,25.20,14.90,49.98,1009.82,2058.98,3549.43,3215.69,3592.13,600.73,604.90,0.53,0000 0000 0000 0000 000000
2015-12-11 05:00:14,0.25,0.13,0.00,17.14,21.46,25.24,14.74,49.87,1009.82,2058.96,3543.80,3211.54,3587.46,599.91,603.91,0.58,0000 0000 0000 0000 000000
2015-12-11 05:05:15,0.25,0.14,0.00,17.18,21.48,25.27,14.80,50.00,1009.86,2058.90,3538.14,3207.33,3582.90,599.84,603.77,0.63,0000 0000 0000 0000 000000
2015-12-11 05:10:17,0.20,0.15,0.00,17.22,21.51,25.28,14.86,50.04,1009.85,2058.50,3532.41,3203.11,3578.29,600.34,604.26,0.68,0000 0000 0000 0000 000000
2015-12-11 05:15:18,0.24,0.16,0.00,17.22,21.54,25.30,14.82,50.03,1009.88,2058.18,3526.65,3198.88,3573.56,600.13,603.82,0.73,0000 0000 0000 0000 000000
2015-12-11 05:20:20,0.25,0.17,0.00,17.25,21.57,25.34,14.84,50.13,1009.87,2058.03,3520.91,3194.66,3568.78,599.90,603.63,0.78,0000 0000 0000 0000 000000
2015-12-11 05:25:21,0.26,0.19,0.00,17.25,21.59,25.39,14.89,50.23,1009.91,2058.01,3515.25,3190.33,3563.98,600.55,604.36,0.83,0000 0000 0000 0000 000000
2015-12-11 05:30:23,0.28,0.20,0.00,17.25,21.62,25.36,14.89,50.21,1009.94,2058.00,3509.28,3185.77,3559.07,600.14,603.98,0.88,0000 0000 0000 0000 000000
2015-12-11 05:35:24,0.27,0.21,0.00,17.28,21.65,25.41,14.73,50.11,1009.84,2058.00,3503.46,3181.39,3554.22,599.48,603.23,0.93,0000 0000 0000 0000 000000
2015-12-11 05:40:25,0.26,0.23,0.00,17.29,21.68,25.43,14.80,50.11,1009.85,2057.99,3497.79,3177.20,3549.51,600.04,603.81,0.98,0000 0000 0000 0000 000000
2015-12-11 05:45:26,0.25,0.24,0.00,17.33,21.70,25.49,14.74,50.15,1009.85,2057.95,3492.18,3173.04,3544.90,599.70,603.33,1.03,0000 0000 0000 0000 000000
2015-12-11 05:50:28,0.24,0.25,0.00,17.34,21.73,25.47,14.82,50.18,1009.82,2057.85,3486.69,3168.94,3540.29,600.03,603.59,1.08,0000 0000 0000 0000 000000
2015-12-11 05:55:28,0.21,0.26,0.00,17.38,21.75,25.55,14.84,50.26,1009.84,2057.44,3481.30,3164.83,3535.81,599.79,603.43,1.13,0000 0000 0000 0000 000000
2015-12-11 06:00:30,0.21,0.28,0.00,17.38,21.77,25.51,14.84,50.25,1009.85,2057.13,3476.07,3160.85,3531.43,600.14,603.76,1.18,0000 0000 0000 0000 000000
2015-12-11 06:05:31,0.23,0.29,0.00,17.39,21.79,25.58,14.85,50.28,1009.83,2057.05,3470.94,3157.02,3527.17,600.25,603.75,1.23,0000 0000 0000 0000 000000
2015-12-11 06:10:32,0.24,0.30,0.00,17.43,21.82,25.57,14.78,50.23,1009.84,2057.00,3465.84,3153.19,3522.84,599.73,603.14,1.28,0000 0000 0000 0000 000000
2015-12-11 06:15:33,0.25,0.31,0.00,17.46,21.84,25.60,14.79,50.13,1009.84,2057.00,3460.41,3149.07,3518.47,600.02,603.37,1.33,0000 0000 0000 0000 000000
2015-12-11 06:20:34,0.26,0.33,0.00,17.48,21.87,25.65,14.82,50.22,1009.83,2057.00,3454.78,3144.86,3513.88,600.29,603.64,1.38,0000 0000 0000 0000 000000
2015-12-11 06:25:36,0.30,0.34,0.00,17.52,21.89,25.66,14.87,50.27,1009.81,2056.99,3448.42,3140.27,3508.77,600.36,603.57,1.43,0000 0000 0000 0000 000000
2015-12-11 06:30:37,0.31,0.36,0.00,17.56,21.92,25.66,14.79,50.14,1009.80,2056.97,3441.57,3135.43,3503.39,600.00,603.16,1.48,0000 0000 0000 0000 000000
2015-12-11 06:35:39,0.29,0.37,0.00,17.56,21.94,25.73,14.84,50.21,1009.79,2056.92,3434.93,3130.80,3498.16,600.07,603.01,1.53,0000 0000 0000 0000 000000
2015-12-11 06:40:40,0.28,0.39,0.00,17.57,21.97,25.74,14.74,50.12,1009.81,2056.64,3427.84,3125.79,3492.58,600.03,603.13,1.58,0000 0000 0000 0000 000000
2015-12-11 06:45:42,0.31,0.40,0.00,17.59,21.98,25.74,14.71,50.17,1009.84,2056.17,3420.43,3120.50,3486.75,599.88,602.96,1.64,0000 0000 0000 0000 000000
2015-12-11 06:50:43,0.35,0.42,0.00,17.64,22.00,25.78,14.81,50.23,1009.80,2056.05,3412.61,3115.03,3480.72,600.03,602.98,1.69,0000 0000 0000 0000 000000
2015-12-11 06:55:44,0.34,0.44,0.00,17.69,22.03,25.83,14.80,50.09,1009.80,2056.04,3405.11,3109.71,3474.83,599.85,602.70,1.74,0000 0000 0000 0000 000000
2015-12-11 07:00:45,0.40,0.45,0.00,17.74,22.05,25.84,14.79,50.12,1009.85,2056.01,3396.81,3103.78,3468.29,599.83,602.62,1.79,0000 0000 0000 0000 000000
2015-12-11 07:05:46,0.51,0.48,0.00,17.74,22.07,25.86,14.73,50.24,1009.79,2056.00,3386.45,3096.33,3460.21,599.70,602.40,1.84,0000 0000 0000 0000 000000
2015-12-11 07:10:47,0.48,0.50,0.00,17.77,22.10,25.85,14.84,50.25,1009.79,2055.99,3375.93,3088.69,3451.94,600.60,603.28,1.89,0000 0000 0000 0000 000000
2015-12-11 07:15:48,0.50,0.53,0.00,17.80,22.12,25.86,14.79,50.27,1009.78,2055.98,3365.49,3081.02,3443.57,600.19,602.99,1.94,0000 0000 0000 0000 000000
2015-12-11 07:20:49,0.47,0.55,0.00,17.82,22.15,25.91,14.74,50.27,1009.78,2055.95,3355.29,3073.63,3435.50,599.91,602.52,1.99,0000 0000 0000 0000 000000
2015-12-11 07:25:51,0.47,0.58,0.00,17.83,22.18,25.92,14.74,50.22,1009.80,2055.67,3344.94,3066.16,3427.21,600.17,602.72,2.04,0000 0000 0000 0000 000000
2015-12-11 07:30:53,0.54,0.60,0.00,17.87,22.20,25.97,14.77,50.40,1009.79,2055.21,3333.27,3057.32,3417.55,599.93,602.46,2.09,0000 0000 0000 0000 000000
2015-12-11 07:35:54,0.50,0.63,0.00,17.89,22.23,25.95,14.70,50.31,1009.79,2055.03,3322.68,3049.26,3408.78,599.75,602.20,2.14,0000 0000 0000 0000 000000
2015-12-11 07:40:55,0.41,0.65,0.00,17.93,22.25,26.01,14.76,50.36,1009.78,2055.01,3313.80,3042.60,3401.51,600.28,602.63,2.19,0000 0000 0000 0000 000000
2015-12-11 07:45:56,0.26,0.67,0.00,17.97,22.28,26.06,14.79,50.40,1009.78,2055.00,3307.66,3038.02,3396.58,600.10,602.35,2.24,0000 0000 0000 0000 000000
2015-12-11 07:50:58,0.23,0.68,0.00,17.99,22.31,26.02,14.80,50.33,1009.79,2055.00,3303.05,3034.59,3392.77,600.17,602.38,2.29,0000 0000 0000 0000 000000
2015-12-11 07:55:59,0.43,0.70,0.00,17.97,22.33,26.09,14.81,50.34,1009.79,2054.99,3295.35,3028.93,3386.70,599.99,602.35,2.34,0000 0000 0000 0000 000000
2015-12-11 08:01:00,0.58,0.72,0.00,18.00,22.35,26.11,14.80,50.33,1009.78,2054.98,3283.64,3020.59,3377.62,600.23,602.45,2.39,0000 0000 0000 0000 000000
2015-12-11 08:06:01,0.56,0.75,0.00,18.03,22.37,26.18,14.75,50.26,1009.78,2054.96,3271.72,3012.20,3368.48,600.11,602.24,2.44,0000 0000 0000 0000 000000
2015-12-11 08:11:02,0.66,0.78,0.00,18.05,22.39,26.19,14.71,50.12,1009.78,2054.61,3257.92,3002.55,3357.78,599.69,601.80,2.49,0000 0000 0000 0000 000000
2015-12-11 08:16:04,0.65,0.82,0.00,18.05,22.42,26.23,14.71,50.03,1009.78,2054.15,3243.06,2992.30,3346.53,600.15,601.96,2.54,0000 0000 0000 0000 000000
2015-12-11 08:21:05,0.54,0.85,0.00,18.09,22.44,26.23,14.69,50.18,1009.78,2054.04,3230.83,2983.86,3337.34,599.57,601.58,2.59,0000 0000 0000 0000 000000
2015-12-11 08:26:07,0.54,0.87,0.00,18.13,22.46,26.25,14.76,50.15,1009.78,2054.00,3219.67,2976.08,3328.86,600.00,601.96,2.64,0000 0000 0000 0000 000000
2015-12-11 08:31:08,0.43,0.90,0.90,18.15,22.48,26.26,14.75,50.29,1009.78,2054.00,3210.29,2969.46,3321.76,599.84,601.81,2.69,0000 0000 0000 0000 000000
2015-12-11 08:36:09,0.37,0.92,1.00,18.20,22.51,26.28,14.76,50.16,1009.78,2053.99,3202.57,2963.87,3315.64,599.86,601.66,2.74,0000 0000 0000 0000 000000
2015-12-11 08:41:10,0.34,0.93,1.00,18.21,22.53,26.30,14.73,50.12,1009.78,2053.98,3195.79,2959.00,3310.24,599.95,601.73,2.79,0000 0000 0000 0000 000000
2015-12-11 08:46:11,0.30,0.95,1.00,18.24,22.55,26.31,14.79,50.18,1009.78,2053.95,3189.56,2954.51,3305.25,599.92,601.72,2.84,0000 0000 0000 0000 000000
2015-12-11 08:51:13,0.27,0.97,1.00,18.25,22.57,26.35,14.75,50.20,1009.78,2053.91,3183.99,2950.41,3300.74,600.09,601.81,2.89,0000 0000 0000 0000 000000
2015-12-11 08:56:14,0.21,0.98,1.00,18.26,22.59,26.40,14.73,50.24,1009.78,2053.62,3179.05,2946.71,3296.61,600.17,601.82,2.94,0000 0000 0000 0000 000000
2015-12-11 09:01:15,0.21,0.99,0.07,18.31,22.61,26.37,14.72,50.22,1009.78,2053.17,3174.13,2943.12,3292.46,600.21,601.77,2.99,0000 0000 0000 0000 000000
2015-12-11 09:06:16,0.23,1.00,0.00,18.32,22.63,26.44,14.72,50.33,1009.77,2053.03,3169.42,2939.63,3288.60,600.14,601.66,3.04,0000 0000 0000 0000 000000
2015-12-11 09:11:18,0.24,1.01,0.00,18.36,22.65,26.46,14.77,50.18,1009.78,2053.02,3164.80,2936.15,3284.69,599.94,601.39,3.09,0000 0000 0000 0000 000000
2015-12-11 09:16:19,0.24,1.02,0.00,18.41,22.68,26.46,14.77,50.30,1009.78,2053.00,3160.15,2932.68,3280.85,600.11,601.48,3.14,0000 0000 0000 0000 000000
2015-12-11 09:21:20,0.24,1.04,0.00,18.40,22.71,26.53,14.80,50.31,1009.67,2053.00,3155.56,2929.18,3276.97,600.24,601.50,3.19,0000 0000 0000 0000 000000
2015-12-11 09:26:21,0.24,1.05,0.00,18.44,22.73,26.53,14.77,50.35,1009.53,2052.99,3150.88,2925.67,3273.02,599.86,601.02,3.24,0000 0000 0000 0000 000000
2015-12-11 09:31:22,0.24,1.06,0.00,18.46,22.76,26.58,14.73,50.23,1009.42,2052.98,3146.20,2922.13,3269.10,600.21,601.21,3.29,0000 0000 0000 0000 000000
2015-12-11 09:36:24,0.25,1.07,0.00,18.47,22.78,26.55,14.74,50.37,1009.41,2052.96,3141.34,2918.49,3265.08,600.03,601.12,3.34,0000 0000 0000 0000 000000
2015-12-11 09:41:25,0.22,1.09,0.00,18.48,22.81,26.62,14.70,50.35,1009.34,2052.76,3136.39,2914.82,3261.13,599.81,600.79,3.39,0000 0000 0000 0000 000000
2015-12-11 09:46:26,0.21,1.10,0.00,18.51,22.83,26.61,14.73,50.36,1009.35,2052.33,3131.90,2911.30,3257.18,600.17,601.02,3.44,0000 0000 0000 0000 000000
2015-12-11 09:51:28,0.23,1.11,0.00,18.54,22.86,26.65,14.68,50.25,1009.33,2052.09,3127.15,2907.65,3253.17,599.96,600.69,3.49,0000 0000 0000 0000 000000
2015-12-11 09:56:29,0.25,1.12,0.00,18.58,22.88,26.69,14.69,50.38,1009.35,2052.02,3122.17,2903.93,3249.03,600.12,600.85,3.54,0000 0000 0000 0000 000000
2015-12-11 10:01:31,0.25,1.14,0.00,18.61,22.91,26.68,14.75,50.33,1009.32,2052.00,3117.39,2900.27,3244.96,600.20,600.86,3.59,0000 0000 0000 0000 000000
2015-12-11 10:06:32,0.26,1.15,0.00,18.63,22.93,26.79,14.74,50.39,1009.31,2052.00,3112.49,2896.59,3240.86,599.93,600.67,3.64,0000 0000 0000 0000 000000
2015-12-11 10:11:33,0.27,1.16,0.00,18.65,22.95,26.76,14.73,50.27,1009.31,2052.00,3107.36,2892.75,3236.59,600.05,600.59,3.69,0000 0000 0000 0000 000000
2015-12-11 10:16:35,0.29,1.18,0.00,18.69,22.98,26.78,14.60,50.17,1009.30,2051.98,3101.98,2888.75,3232.11,599.77,600.09,3.74,0000 0000 0000 0000 000000
2015-12-11 10:21:36,0.28,1.19,0.00,18.74,23.00,26.80,14.74,50.26,1009.30,2051.98,3096.68,2884.83,3227.71,600.26,600.64,3.79,0000 0000 0000 0000 000000
2015-12-11 10:26:37,0.28,1.21,0.00,18.75,23.03,26.82,14.69,50.36,1009.29,2051.96,3091.42,2880.92,3223.39,599.47,599.82,3.84,0000 0000 0000 0000 000000
2015-12-11 10:31:39,0.24,1.22,0.00,18.79,23.05,26.88,14.76,50.26,1009.29,2051.77,3086.14,2877.13,3218.92,600.17,600.26,3.89,0000 0000 0000 0000 000000
2015-12-11 10:36:40,0.23,1.23,0.00,18.81,23.08,26.89,14.76,50.30,1009.30,2051.31,3080.91,2873.21,3214.52,600.16,600.36,3.94,0000 0000 0000 0000 000000
2015-12-11 10:41:41,0.26,1.24,0.00,18.84,23.10,26.92,14.74,50.13,1009.29,2051.05,3075.75,2869.33,3210.24,600.12,600.29,4.00,0000 0000 0000 0000 000000
2015-12-11 10:46:42,0.27,1.26,0.00,18.88,23.13,26.92,14.73,50.19,1009.29,2051.02,3070.77,2865.54,3206.01,600.39,600.61,4.05,0000 0000 0000 0000 000000
2015-12-11 10:51:44,0.27,1.27,0.00,18.88,23.15,26.97,14.71,50.19,1009.29,2051.00,3065.72,2861.71,3201.71,599.81,599.97,4.10,0000 0000 0000 0000 000000
2015-12-11 10:56:45,0.28,1.29,0.00,18.91,23.18,26.99,14.74,50.31,1009.29,2051.00,3060.55,2857.83,3197.50,600.08,600.08,4.15,0000 0000 0000 0000 000000
2015-12-11 11:01:47,0.28,1.30,0.00,18.93,23.20,27.03,14.72,50.33,1009.29,2051.00,3055.46,2853.96,3193.23,600.27,600.25,4.20,0000 0000 0000 0000 000000
2015-12-11 11:06:48,0.28,1.31,0.00,18.96,23.22,27.01,14.73,50.33,1009.29,2050.98,3050.24,2850.11,3188.87,600.13,599.95,4.25,0000 0000 0000 0000 000000
2015-12-11 11:11:49,0.27,1.33,0.00,18.98,23.25,27.06,14.73,50.33,1009.29,2050.98,3045.15,2846.20,3184.58,599.99,599.82,4.30,0000 0000 0000 0000 000000
2015-12-11 11:16:50,0.26,1.34,0.00,19.02,23.27,27.06,14.75,50.37,1009.29,2050.95,3040.21,2842.47,3180.43,600.36,600.20,4.35,0000 0000 0000 0000 000000
2015-12-11 11:21:51,0.25,1.35,0.00,19.02,23.29,27.11,14.67,50.53,1009.29,2050.83,3035.35,2838.86,3176.41,599.66,599.48,4.40,0000 0000 0000 0000 000000
2015-12-11 11:26:53,0.21,1.37,0.00,19.03,23.31,27.11,14.75,50.32,1009.29,2050.38,3030.62,2835.23,3172.41,600.28,600.07,4.45,0000 0000 0000 0000 000000
2015-12-11 11:31:53,0.24,1.38,0.00,19.07,23.33,27.15,14.74,50.25,1009.29,2050.05,3025.84,2831.67,3168.40,600.51,600.26,4.50,0000 0000 0000 0000 000000
2015-12-11 11:36:55,0.25,1.39,0.00,19.09,23.35,27.13,14.78,50.20,1009.29,2050.01,3021.17,2828.17,3164.46,600.03,599.66,4.55,0000 0000 0000 0000 000000
2015-12-11 11:41:56,0.25,1.40,0.00,19.09,23.37,27.16,14.76,50.08,1009.29,2050.00,3016.54,2824.68,3160.58,600.30,599.93,4.60,0000 0000 0000 0000 000000
2015-12-11 11:46:58,0.26,1.42,0.00,19.14,23.39,27.18,14.76,50.07,1009.29,2050.00,3011.86,2821.13,3156.59,600.32,599.79,4.65,0000 0000 0000 0000 000000
2015-12-11 11:51:59,0.26,1.43,0.00,19.14,23.41,27.26,14.72,50.11,1009.29,2050.00,3007.33,2817.66,3152.71,599.82,599.53,4.70,0000 0000 0000 0000 000000
2015-12-11 11:57:01,0.26,1.44,0.00,19.14,23.43,27.24,14.67,50.25,1009.26,2049.99,3002.53,2814.11,3148.63,599.76,599.28,4.75,0000 0000 0000 0000 000000
2015-12-11 12:02:02,0.27,1.46,0.00,19.16,23.45,27.25,14.66,50.20,1009.26,2049.98,2997.72,2810.48,3144.55,599.80,599.33,4.80,0000 0000 0000 0000 000000
2015-12-11 12:07:03,0.27,1.47,0.00,19.19,23.47,27.27,14.71,50.27,1009.22,2049.97,2992.87,2806.85,3140.54,600.19,599.52,4.85,0000 0000 0000 0000 000000
2015-12-11 12:12:05,0.26,1.48,0.00,19.20,23.50,27.31,14.69,50.18,1009.04,2049.90,2988.01,2803.19,3136.43,600.24,599.55,4.90,0000 0000 0000 0000 000000
2015-12-11 12:17:06,0.23,1.50,0.00,19.23,23.52,27.36,14.67,50.28,1008.86,2049.61,2983.20,2799.59,3132.57,600.23,599.34,4.95,0000 0000 0000 0000 000000
2015-12-11 12:22:07,0.23,1.51,0.00,19.27,23.54,27.37,14.66,50.27,1008.84,2049.23,2978.35,2795.95,3128.50,599.73,598.74,5.00,0000 0000 0000 0000 000000
2015-12-11 12:27:08,0.27,1.52,0.00,19.30,23.56,27.40,14.68,50.20,1008.89,2049.07,2973.57,2792.30,3124.44,599.79,598.83,5.05,0000 0000 0000 0000 000000
2015-12-11 12:32:10,0.27,1.53,0.00,19.33,23.58,27.46,14.72,50.26,1008.92,2049.01,2968.67,2788.63,3120.32,600.19,599.04,5.10,0000 0000 0000 0000 000000
2015-12-11 12:37:11,0.27,1.55,0.00,19.36,23.61,27.43,14.68,50.14,1008.85,2049.00,2963.76,2784.90,3116.17,600.13,598.98,5.15,0000 0000 0000 0000 000000
2015-12-11 12:42:13,0.30,1.56,0.00,19.38,23.64,27.46,14.75,50.20,1008.82,2049.00,2958.65,2781.04,3111.85,600.21,599.07,5.20,0000 0000 0000 0000 000000
2015-12-11 12:47:14,0.30,1.58,0.00,19.40,23.66,27.43,14.69,50.15,1008.80,2048.99,2953.32,2777.08,3107.47,600.10,598.82,5.25,0000 0000 0000 0000 000000
2015-12-11 12:52:15,0.30,1.59,0.00,19.40,23.69,27.49,14.63,50.19,1008.80,2048.97,2948.09,2773.11,3102.96,599.85,598.60,5.30,0000 0000 0000 0000 000000
2015-12-11 12:57:16,0.29,1.61,0.00,19.41,23.71,27.56,14.67,50.28,1008.80,2048.89,2942.83,2769.11,3098.52,599.78,598.49,5.35,0000 0000 0000 0000 000000